User: anonymous   Login
Location: NJAA Observatory
(40.6819°N, 74.8979°W)
Time: 03:47:11
(UTC-04:00)
Language:

Iridium 84 - Orbit

View from above orbital plane
View from above orbital plane
View from above satellite
View from above satellite

Ground track
Ground track

The orbit data is extracted from the following two-line orbital elements,

1 25530U 98066D   15212.55295653  .00000263  00000-0  86682-4 0  9990
2 25530 086.3952 276.9963 0002284 094.5068 265.6389 14.34217453878589
Epoch (UTC): 31 July 2015 13:16:15
Eccentricity: 0.0002284
inclination: 86.3952°
perigee height: 776 km
apogee height: 779 km
right ascension of ascending node: 276.9963°
argument of perigee: 94.5068°
revolutions per day: 14.34217453
mean anomaly at epoch: 265.6389°
orbit number at epoch: 87858

The dashed part of the orbit path shows where the satellite is in the earth's shadow,  

DLR